QPF
0.00 0.00 0.00 0.01 0.00 0.00 0.01 0.10 0.02 0.03 0.03 0.00 0.00 0.13 0.30 0.19 0.07 0.00 0.00 0.00 0.00 0.00 0.00 0.00 0.00 0.00 0.00 0.00 0.00 0.00 0.00 0.00 0.00 0.00 0.00 0.00 0.00 0.00 0.00 0.00 0.00 0.00 0.00
0.00 0.00 0.00 0.00 0.01 0.01 0.02 0.05 0.04 0.02 0.02 0.01 0.00 0.04 0.17 0.16 0.03 0.00 0.00 0.00 0.00 0.00 0.00 0.00 0.00 0.00 0.00 0.00 0.00 0.00 0.00 0.00 0.00 0.00 0.00 0.00 0.00 0.00 0.00 0.00 0.00 0.00 0.00
0.00 0.00 0.00 0.01 0.07 0.02 0.01 0.02 0.03 0.01 0.02 0.04 0.04 0.04 0.07 0.06 0.01 0.00 0.00 0.00 0.00 0.00 0.00 0.00 0.00 0.00 0.00 0.00 0.00 0.00 0.00 0.00 0.00 0.00 0.00 0.00 0.00 0.00 0.00 0.00 0.00 0.00 0.00
0.00 0.00 0.02 0.02 0.05 0.06 0.05 0.01 0.00 0.00 0.03 0.09 0.09 0.10 0.08 0.02 0.00 0.00 0.00 0.00 0.00 0.00 0.00 0.00 0.00 0.00 0.00 0.00 0.00 0.00 0.00 0.00 0.00 0.00 0.00 0.00 0.00 0.00 0.00 0.00 0.00 0.00 0.00
0.00 0.00 0.02 0.09 0.06 0.08 0.08 0.05 0.02 0.02 0.03 0.05 0.06 0.06 0.06 0.01 0.00 0.00 0.00 0.00 0.00 0.00 0.00 0.00 0.00 0.00 0.00 0.00 0.00 0.00 0.00 0.00 0.00 0.00 0.00 0.00 0.00 0.00 0.00 0.00 0.00 0.00 0.00
0.00 0.00 0.01 0.09 0.08 0.09 0.04 0.02 0.01 0.01 0.02 0.04 0.04 0.03 0.02 0.01 0.00 0.00 0.00 0.00 0.00 0.00 0.00 0.00 0.00 0.00 0.00 0.00 0.00 0.00 0.00 0.00 0.00 0.00 0.00 0.00 0.00 0.00 0.00 0.00 0.00 0.00 0.00
0.00 0.00 0.00 0.01 0.04 0.05 0.06 0.01 0.03 0.02 0.02 0.03 0.04 0.04 0.02 0.00 0.01 0.00 0.00 0.00 0.00 0.00 0.00 0.00 0.00 0.00 0.00 0.00 0.00 0.00 0.00 0.00 0.00 0.00 0.00 0.00 0.00 0.00 0.00 0.00 0.00 0.00 0.00
0.00 0.00 0.00 0.00 0.02 0.01 0.04 0.03 0.02 0.01 0.01 0.02 0.03 0.03 0.00 0.00 0.00 0.00 0.00 0.00 0.00 0.00 0.00 0.00 0.00 0.00 0.00 0.00 0.00 0.00 0.00 0.00 0.00 0.00 0.00 0.00 0.00 0.00 0.00 0.00 0.00 0.00 0.00
0.00 0.00 0.00 0.00 0.00 0.00 0.04 0.02 0.00 0.00 0.00 0.02 0.03 0.01 0.00 0.00 0.00 0.00 0.00 0.00 0.00 0.00 0.00 0.00 0.00 0.00 0.00 0.00 0.00 0.00 0.00 0.00 0.00 0.00 0.00 0.00 0.00 0.00 0.00 0.00 0.00 0.00 0.00
0.00 0.00 0.00 0.00 0.00 0.00 0.01 0.01 0.00 0.00 0.00 0.01 0.01 0.01 0.00 0.00 0.00 0.00 0.00 0.00 0.00 0.00 0.00 0.00 0.00 0.00 0.00 0.00 0.00 0.00 0.00 0.00 0.00 0.00 0.00 0.00 0.00 0.00 0.00 0.00 0.00 0.00 0.00
0.00 0.00 0.00 0.01 0.01 0.00 0.00 0.00 0.00 0.00 0.00 0.00 0.00 0.00 0.00 0.00 0.00 0.00 0.00 0.00 0.00 0.00 0.00 0.00 0.00 0.00 0.00 0.00 0.00 0.00 0.00 0.00 0.00 0.00 0.00 0.00 0.00 0.00 0.00 0.00 0.00 0.00 0.00
0.00 0.00 0.00 0.01 0.01 0.00 0.00 0.00 0.00 0.00 0.00 0.00 0.00 0.00 0.00 0.00 0.00 0.00 0.00 0.00 0.00 0.00 0.00 0.00 0.00 0.00 0.00 0.00 0.00 0.00 0.00 0.00 0.00 0.00 0.00 0.00 0.00 0.00 0.00 0.00 0.00 0.00 0.00
0.00 0.00 0.00 0.01 0.01 0.00 0.00 0.00 0.00 0.00 0.00 0.00 0.00 0.00 0.00 0.00 0.00 0.00 0.00 0.00 0.00 0.00 0.00 0.00 0.00 0.00 0.00 0.00 0.00 0.00 0.00 0.00 0.00 0.00 0.00 0.00 0.00 0.00 0.00 0.00 0.00 0.00 0.00
0.00 0.00 0.00 0.00 0.00 0.00 0.00 0.00 0.00 0.00 0.00 0.00 0.00 0.00 0.00 0.00 0.00 0.00 0.00 0.00 0.00 0.00 0.00 0.00 0.00 0.00 0.00 0.00 0.00 0.00 0.00 0.00 0.00 0.00 0.00 0.00 0.00 0.00 0.00 0.00 0.00 0.00 0.00
0.00 0.00 0.00 0.00 0.00 0.00 0.00 0.00 0.00 0.00 0.00 0.00 0.00 0.00 0.00 0.00 0.00 0.00 0.00 0.00 0.00 0.00 0.00 0.00 0.00 0.00 0.00 0.00 0.00 0.00 0.00 0.00 0.00 0.00 0.00 0.00 0.00 0.00 0.00 0.00 0.00 0.00 0.00
0.00 0.00 0.00 0.00 0.00 0.00 0.00 0.00 0.00 0.00 0.00 0.00 0.00 0.00 0.00 0.00 0.00 0.00 0.00 0.00 0.00 0.00 0.00 0.00 0.00 0.00 0.00 0.00 0.00 0.00 0.00 0.00 0.00 0.00 0.00 0.00 0.00 0.00 0.00 0.00 0.00 0.00 0.00
0.00 0.00 0.00 0.00 0.00 0.00 0.00 0.00 0.00 0.00 0.00 0.00 0.00 0.00 0.00 0.00 0.00 0.00 0.00 0.00 0.00 0.00 0.00 0.00 0.00 0.00 0.00 0.00 0.00 0.00 0.00 0.00 0.00 0.00 0.00 0.00 0.00 0.00 0.00 0.00 0.00 0.00 0.00
0.00 0.00 0.00 0.00 0.00 0.00 0.00 0.00 0.00 0.00 0.00 0.00 0.00 0.00 0.00 0.00 0.00 0.00 0.00 0.00 0.00 0.00 0.00 0.00 0.00 0.00 0.00 0.00 0.00 0.00 0.00 0.00 0.00 0.00 0.00 0.00 0.00 0.00 0.00 0.00 0.00 0.00 0.00
0.00 0.00 0.00 0.00 0.00 0.00 0.00 0.00 0.00 0.00 0.00 0.00 0.00 0.00 0.00 0.00 0.00 0.00 0.00 0.00 0.00 0.00 0.00 0.00 0.00 0.00 0.00 0.00 0.00 0.00 0.00 0.00 0.00 0.00 0.00 0.00 0.00 0.00 0.00 0.00 0.00 0.00 0.00
0.00 0.00 0.00 0.00 0.00 0.00 0.00 0.00 0.00 0.00 0.00 0.00 0.00 0.00 0.00 0.00 0.00 0.00 0.00 0.00 0.00 0.00 0.00 0.00 0.00 0.00 0.00 0.00 0.00 0.00 0.00 0.00 0.00 0.00 0.00 0.00 0.00 0.00 0.00 0.00 0.00 0.00 0.00
0.00 0.00 0.00 0.00 0.00 0.00 0.00 0.00 0.00 0.00 0.00 0.00 0.00 0.00 0.00 0.00 0.00 0.00 0.00 0.00 0.00 0.00 0.00 0.00 0.00 0.00 0.00 0.00 0.00 0.00 0.00 0.00 0.00 0.00 0.00 0.00 0.00 0.00 0.00 0.00 0.00 0.00 0.00
0.00 0.00 0.00 0.00 0.00 0.00 0.00 0.00 0.00 0.00 0.00 0.00 0.00 0.00 0.00 0.00 0.00 0.00 0.00 0.00 0.00 0.00 0.00 0.00 0.00 0.00 0.00 0.00 0.00 0.00 0.00 0.00 0.00 0.00 0.00 0.00 0.00 0.00 0.00 0.00 0.00 0.00 0.00
0.00 0.00 0.00 0.00 0.00 0.00 0.00 0.00 0.00 0.00 0.00 0.00 0.00 0.00 0.00 0.00 0.00 0.00 0.00 0.00 0.00 0.00 0.00 0.00 0.00 0.00 0.00 0.00 0.00 0.00 0.00 0.00 0.00 0.00 0.00 0.00 0.00 0.00 0.00 0.00 0.00 0.00 0.00
0.00 0.00 0.00 0.00 0.00 0.00 0.00 0.00 0.00 0.00 0.00 0.00 0.00 0.00 0.00 0.00 0.00 0.00 0.00 0.00 0.00 0.00 0.00 0.00 0.00 0.00 0.00 0.00 0.00 0.00 0.00 0.00 0.00 0.00 0.00 0.00 0.00 0.00 0.00 0.00 0.00 0.00 0.00
0.00 0.00 0.00 0.00 0.00 0.00 0.00 0.00 0.00 0.00 0.00 0.00 0.00 0.00 0.00 0.00 0.00 0.00 0.00 0.00 0.00 0.00 0.00 0.00 0.00 0.00 0.00 0.00 0.00 0.00 0.00 0.00 0.00 0.00 0.00 0.00 0.00 0.00 0.00 0.00 0.00 0.00 0.00
0.00 0.00 0.00 0.00 0.00 0.00 0.00 0.00 0.00 0.00 0.00 0.00 0.00 0.00 0.00 0.00 0.00 0.00 0.00 0.00 0.00 0.00 0.00 0.00 0.00 0.00 0.00 0.00 0.00 0.00 0.00 0.00 0.00 0.00 0.00 0.00 0.00 0.00 0.00 0.00 0.00 0.00 0.00
MSLP
1009.25 1008.57 1008.10 1007.29 1006.76 1006.41 1006.34 1006.26 1006.53 1006.65 1006.61 1006.40 1006.63 1007.93 1008.97 1009.42 1009.08 1010.19 1010.84 1011.09 1011.95 1013.08 1013.60 1013.87 1014.66 1014.82 1015.22 1015.63 1015.80 1016.16 1016.63 1017.14 1018.71 1020.32 1020.72 1020.86 1020.81 1020.70 1020.56 1020.36 1020.39 1020.35 1020.35
1009.08 1008.53 1008.01 1007.35 1006.82 1006.50 1006.27 1006.34 1006.42 1006.56 1006.29 1006.15 1006.36 1007.52 1008.88 1009.46 1009.56 1010.41 1010.92 1011.58 1012.18 1013.29 1013.74 1014.20 1015.00 1015.31 1015.82 1016.11 1016.35 1017.02 1017.25 1017.60 1018.64 1020.05 1020.99 1021.44 1021.59 1021.57 1021.58 1021.46 1021.48 1021.39 1021.45
1009.37 1008.91 1008.29 1007.63 1007.01 1006.48 1006.04 1006.12 1006.18 1006.23 1006.74 1006.10 1007.14 1007.48 1008.73 1009.42 1009.96 1010.78 1011.32 1012.07 1012.47 1013.66 1013.95 1014.66 1015.40 1015.79 1016.26 1016.58 1017.27 1017.74 1017.97 1018.49 1019.20 1020.08 1021.10 1021.59 1022.07 1022.23 1022.32 1022.40 1022.62 1022.57 1022.31
1010.08 1009.29 1008.59 1007.87 1007.24 1006.27 1005.99 1006.24 1006.08 1006.35 1006.46 1006.93 1007.31 1007.92 1008.65 1009.35 1010.48 1011.35 1011.98 1012.60 1013.33 1014.18 1014.50 1015.17 1015.65 1016.34 1016.72 1017.37 1017.95 1018.32 1018.54 1019.08 1019.93 1020.60 1021.34 1021.89 1022.24 1022.69 1022.87 1023.48 1023.97 1023.93 1023.86
1010.44 1009.68 1008.69 1007.91 1007.05 1005.71 1005.75 1006.09 1006.28 1006.45 1006.82 1007.13 1007.86 1008.60 1009.09 1009.69 1011.10 1011.88 1012.50 1013.22 1013.89 1014.86 1015.27 1015.67 1016.33 1016.96 1017.46 1017.96 1018.45 1018.83 1019.04 1019.77 1020.65 1021.24 1021.98 1022.43 1022.97 1023.35 1023.66 1024.03 1024.44 1024.66 1024.73
1010.64 1009.86 1008.95 1007.96 1007.12 1006.55 1006.33 1006.64 1006.60 1006.87 1007.17 1007.77 1008.43 1008.80 1009.61 1010.68 1011.56 1012.37 1012.94 1013.74 1014.64 1015.40 1015.84 1016.35 1017.24 1017.77 1018.33 1018.80 1019.04 1019.42 1019.73 1020.21 1021.08 1022.04 1023.00 1023.53 1024.07 1024.27 1024.32 1024.48 1024.75 1025.18 1025.73
1010.79 1009.87 1008.89 1008.12 1007.44 1007.04 1006.47 1006.86 1007.05 1007.36 1007.66 1008.18 1008.61 1009.36 1010.32 1011.30 1012.17 1013.03 1013.50 1014.50 1015.21 1016.05 1016.43 1017.16 1018.03 1019.25 1019.55 1019.89 1020.30 1020.60 1020.99 1021.32 1021.97 1022.78 1023.64 1024.29 1024.66 1024.79 1024.69 1025.12 1025.67 1026.15 1026.87
1010.87 1009.97 1009.16 1008.31 1007.70 1007.36 1007.29 1007.42 1007.47 1007.76 1007.94 1008.51 1009.19 1010.18 1010.88 1012.24 1012.82 1013.50 1014.21 1015.20 1015.90 1016.57 1017.17 1018.07 1019.18 1020.29 1020.81 1020.92 1021.20 1021.82 1022.44 1022.98 1023.52 1023.75 1024.22 1024.63 1024.94 1025.06 1024.96 1025.26 1026.00 1026.59 1027.06
1010.90 1010.19 1009.38 1008.54 1007.89 1007.63 1007.49 1007.74 1008.10 1008.28 1008.70 1009.22 1009.72 1010.82 1011.57 1012.87 1013.41 1013.96 1014.54 1015.77 1016.40 1017.39 1018.18 1019.29 1020.22 1021.02 1021.35 1021.49 1021.67 1022.48 1023.31 1023.83 1024.15 1024.34 1024.52 1024.72 1024.83 1024.97 1025.29 1025.57 1026.42 1026.73 1027.71
1010.91 1010.25 1009.52 1008.80 1007.91 1007.79 1007.88 1007.90 1008.45 1008.81 1009.22 1009.95 1010.77 1011.58 1012.40 1013.23 1013.76 1014.27 1014.91 1015.94 1016.73 1018.09 1019.38 1020.47 1021.30 1021.56 1021.88 1022.35 1022.57 1023.36 1024.10 1025.17 1025.53 1025.92 1026.30 1026.19 1026.21 1026.08 1026.26 1026.70 1027.10 1027.30 1027.75
1010.89 1010.34 1009.68 1008.80 1007.92 1007.76 1008.04 1008.06 1008.71 1009.33 1010.11 1010.96 1011.79 1012.61 1013.34 1014.08 1014.62 1014.91 1015.50 1016.30 1017.40 1018.84 1020.25 1021.27 1021.88 1022.07 1022.41 1023.03 1023.59 1024.04 1024.56 1025.48 1026.13 1026.54 1027.03 1027.36 1027.52 1027.56 1027.64 1027.63 1027.67 1027.60 1028.02
1010.64 1010.15 1009.35 1008.68 1007.64 1008.09 1008.19 1009.04 1009.60 1010.22 1011.03 1011.97 1012.79 1013.46 1014.43 1015.25 1015.51 1016.12 1016.38 1017.39 1018.57 1019.25 1020.89 1021.72 1022.23 1022.51 1022.93 1023.38 1023.88 1024.36 1025.06 1025.96 1026.77 1027.29 1027.71 1028.11 1028.18 1028.28 1028.44 1028.37 1028.29 1028.28 1028.28
1010.12 1009.90 1009.55 1008.64 1007.62 1008.23 1008.88 1009.67 1010.35 1010.87 1011.58 1012.57 1013.10 1014.15 1015.27 1016.18 1016.72 1017.06 1017.81 1018.79 1019.67 1020.54 1021.59 1022.10 1022.42 1022.89 1023.33 1023.89 1024.50 1025.14 1025.98 1026.83 1027.37 1027.82 1028.30 1028.64 1028.70 1028.65 1028.63 1028.75 1028.82 1028.73 1028.69
1009.60 1009.54 1009.29 1008.56 1008.21 1008.62 1009.34 1010.08 1010.75 1011.48 1012.12 1012.86 1013.52 1014.60 1015.51 1016.56 1017.35 1018.34 1019.06 1019.87 1020.66 1021.60 1022.22 1023.01 1023.52 1024.00 1024.40 1024.93 1025.76 1026.45 1027.05 1027.45 1027.68 1028.20 1028.67 1028.90 1028.97 1029.10 1029.16 1029.18 1029.34 1029.45 1029.42
1009.01 1009.19 1009.12 1008.70 1008.24 1009.26 1009.97 1010.47 1011.08 1011.71 1011.93 1012.69 1013.73 1014.33 1015.45 1016.97 1017.88 1018.55 1019.18 1020.28 1021.42 1022.34 1022.99 1023.75 1024.62 1025.34 1025.81 1026.47 1026.95 1027.41 1027.80 1027.98 1028.27 1028.66 1029.05 1029.41 1029.62 1029.65 1029.73 1029.70 1029.83 1029.98 1030.09
1008.47 1008.60 1008.59 1008.72 1009.09 1009.80 1010.46 1011.50 1012.07 1012.36 1013.13 1013.67 1014.43 1014.89 1016.40 1017.05 1018.06 1019.24 1020.21 1021.00 1021.92 1022.80 1023.67 1024.52 1025.59 1026.18 1026.82 1027.33 1027.81 1028.28 1028.52 1028.74 1028.98 1029.27 1029.62 1029.85 1030.10 1030.18 1030.23 1030.23 1030.28 1030.45 1030.59
1007.78 1007.97 1008.58 1008.87 1009.48 1010.08 1010.91 1011.66 1012.81 1014.17 1014.45 1014.83 1015.23 1015.98 1016.48 1017.72 1018.92 1019.97 1020.83 1021.76 1022.66 1023.41 1024.08 1025.35 1026.11 1026.90 1027.49 1027.95 1028.33 1028.68 1029.12 1029.38 1029.53 1029.89 1030.12 1030.33 1030.42 1030.53 1030.67 1030.68 1030.74 1030.81 1030.97
1007.13 1007.72 1008.26 1008.80 1009.79 1010.56 1011.18 1012.15 1012.95 1013.99 1014.94 1016.06 1016.66 1017.14 1018.02 1018.87 1019.90 1020.67 1021.27 1022.22 1023.55 1024.50 1024.91 1025.80 1026.66 1027.35 1027.85 1028.37 1028.80 1029.15 1029.52 1029.85 1030.20 1030.49 1030.69 1030.80 1030.88 1030.97 1031.11 1031.22 1031.18 1031.15 1031.14
1006.99 1007.83 1008.56 1009.38 1010.12 1010.95 1011.78 1012.73 1013.55 1014.38 1015.50 1016.57 1017.70 1018.72 1019.47 1020.00 1020.79 1021.40 1022.06 1022.93 1023.91 1024.85 1025.60 1026.34 1026.96 1027.52 1028.12 1028.62 1029.07 1029.46 1029.83 1030.28 1030.67 1030.94 1031.17 1031.25 1031.33 1031.33 1031.54 1031.53 1031.38 1031.19 1031.27
1007.56 1008.19 1008.91 1009.74 1010.75 1011.55 1012.35 1013.22 1014.25 1015.02 1016.16 1017.18 1018.35 1019.23 1020.00 1020.55 1021.50 1022.35 1023.12 1023.87 1024.59 1025.22 1025.92 1026.57 1027.26 1027.78 1028.34 1028.84 1029.30 1029.73 1030.20 1030.68 1031.04 1031.31 1031.46 1031.55 1031.66 1031.68 1031.83 1031.87 1031.87 1031.93 1031.84
1007.97 1008.84 1009.37 1010.28 1011.23 1012.01 1012.77 1013.83 1014.68 1015.55 1016.55 1017.83 1018.84 1019.65 1020.26 1021.15 1021.96 1022.76 1023.74 1024.53 1025.02 1025.54 1026.16 1026.78 1027.41 1027.98 1028.62 1029.13 1029.46 1029.95 1030.45 1030.95 1031.30 1031.57 1031.69 1031.78 1031.90 1032.05 1032.10 1032.12 1032.12 1032.06 1031.99
1008.62 1009.39 1010.04 1010.77 1011.59 1012.55 1013.50 1014.34 1015.19 1016.14 1017.23 1018.06 1019.20 1020.22 1021.08 1021.83 1022.48 1023.27 1024.20 1024.91 1025.46 1025.81 1026.29 1026.86 1027.54 1028.11 1028.74 1029.12 1029.47 1030.04 1030.59 1031.10 1031.46 1031.68 1031.87 1031.94 1032.10 1032.23 1032.31 1032.38 1032.41 1032.39 1032.30
1009.07 1009.72 1010.56 1011.32 1012.17 1013.06 1014.05 1014.89 1015.75 1016.74 1017.57 1018.41 1019.40 1020.46 1021.50 1022.29 1022.98 1023.74 1024.57 1025.24 1025.72 1026.21 1026.70 1027.16 1027.71 1028.47 1028.92 1029.29 1029.62 1029.99 1030.52 1031.10 1031.40 1031.58 1031.92 1032.12 1032.26 1032.35 1032.51 1032.66 1032.70 1032.69 1032.62
1009.85 1010.26 1010.88 1011.73 1012.63 1013.49 1014.40 1015.37 1016.36 1017.16 1017.95 1018.77 1019.69 1020.69 1021.60 1022.44 1023.23 1024.05 1024.90 1025.47 1025.99 1026.51 1026.94 1027.42 1027.91 1028.47 1029.02 1029.52 1029.89 1030.21 1030.53 1030.94 1031.25 1031.58 1031.80 1032.10 1032.46 1032.63 1032.78 1032.90 1032.97 1032.99 1032.94
1010.34 1010.82 1011.40 1012.17 1012.96 1013.86 1014.90 1015.81 1016.74 1017.61 1018.34 1019.03 1019.98 1020.89 1021.84 1022.67 1023.48 1024.36 1025.22 1025.72 1026.20 1026.70 1027.26 1027.72 1028.21 1028.63 1029.10 1029.59 1030.02 1030.36 1030.62 1030.93 1031.33 1031.65 1031.97 1032.26 1032.60 1032.81 1033.01 1033.14 1033.24 1033.34 1033.33
1011.01 1011.42 1011.92 1012.66 1013.41 1014.16 1015.11 1016.08 1016.96 1017.72 1018.47 1019.34 1020.18 1021.08 1021.96 1022.79 1023.63 1024.51 1025.33 1025.85 1026.41 1026.99 1027.52 1028.02 1028.44 1028.83 1029.30 1029.75 1030.12 1030.41 1030.73 1031.07 1031.50 1031.80 1032.14 1032.52 1032.86 1033.16 1033.31 1033.43 1033.48 1033.59 1033.68
Thickness
5545 5556 5567 5579 5586 5592 5596 5600 5603 5603 5605 5612 5614 5606 5597 5600 5610 5606 5606 5610 5606 5598 5596 5596 5590 5588 5584 5580 5579 5576 5572 5567 5554 5539 5534 5531 5530 5528 5525 5524 5521 5518 5514
5537 5547 5561 5570 5579 5584 5590 5594 5598 5601 5604 5609 5612 5608 5598 5599 5602 5601 5601 5601 5601 5591 5591 5589 5583 5580 5575 5573 5572 5566 5564 5561 5552 5539 5530 5524 5520 5517 5514 5511 5507 5503 5499
5527 5537 5550 5560 5568 5577 5585 5590 5595 5597 5594 5605 5602 5604 5598 5597 5596 5595 5595 5593 5594 5585 5586 5581 5575 5572 5570 5568 5562 5558 5555 5551 5545 5537 5527 5520 5513 5508 5503 5498 5492 5488 5484
5515 5527 5539 5549 5560 5572 5580 5583 5589 5590 5592 5593 5596 5595 5595 5597 5592 5588 5586 5586 5583 5578 5578 5574 5571 5565 5563 5558 5555 5551 5549 5545 5537 5531 5524 5516 5509 5500 5493 5483 5474 5469 5463
5504 5516 5532 5543 5555 5562 5576 5580 5584 5587 5587 5589 5588 5587 5588 5592 5583 5580 5579 5579 5576 5570 5570 5569 5563 5558 5555 5552 5549 5546 5544 5538 5531 5525 5516 5508 5499 5488 5480 5470 5460 5451 5441
5495 5509 5525 5538 5546 5554 5567 5571 5579 5581 5583 5582 5581 5583 5582 5578 5578 5573 5575 5573 5568 5564 5563 5563 5555 5550 5547 5546 5545 5542 5539 5533 5525 5514 5501 5494 5482 5475 5468 5458 5447 5434 5421
5486 5504 5521 5534 5541 5546 5559 5564 5571 5574 5576 5575 5576 5576 5575 5573 5569 5568 5569 5563 5562 5558 5558 5554 5547 5536 5537 5536 5534 5531 5527 5522 5514 5505 5493 5481 5471 5464 5457 5443 5427 5413 5399
5479 5498 5515 5530 5538 5543 5546 5557 5563 5568 5571 5571 5570 5568 5571 5563 5563 5564 5562 5557 5556 5554 5552 5545 5535 5529 5527 5527 5525 5520 5514 5507 5501 5494 5485 5474 5465 5456 5446 5431 5414 5398 5385
5476 5492 5509 5524 5536 5540 5547 5554 5557 5561 5562 5564 5565 5563 5563 5556 5557 5559 5560 5552 5552 5547 5543 5533 5528 5523 5523 5523 5522 5515 5506 5499 5491 5483 5475 5465 5456 5446 5435 5421 5402 5389 5367
5473 5489 5505 5517 5535 5540 5544 5552 5552 5555 5558 5557 5556 5555 5555 5554 5553 5557 5557 5551 5550 5542 5531 5524 5520 5521 5520 5517 5515 5507 5498 5485 5478 5470 5461 5453 5443 5431 5417 5404 5387 5371 5354
5469 5484 5498 5516 5531 5536 5540 5547 5549 5549 5547 5546 5546 5546 5547 5545 5547 5552 5551 5549 5544 5534 5525 5518 5517 5517 5516 5512 5507 5500 5493 5482 5472 5463 5452 5441 5430 5417 5403 5389 5374 5360 5342
5465 5481 5498 5512 5529 5528 5532 5534 5539 5539 5537 5536 5535 5540 5537 5535 5541 5541 5546 5539 5534 5531 5520 5516 5515 5514 5512 5508 5503 5496 5487 5476 5465 5455 5444 5432 5420 5406 5392 5377 5362 5348 5336
5465 5479 5493 5511 5527 5527 5529 5530 5530 5531 5532 5530 5536 5534 5530 5528 5531 5534 5533 5528 5526 5522 5516 5514 5514 5512 5508 5503 5496 5489 5479 5469 5459 5450 5438 5426 5414 5402 5388 5372 5356 5342 5331
5467 5480 5493 5511 5522 5526 5525 5526 5526 5526 5528 5530 5533 5531 5530 5527 5527 5524 5524 5521 5519 5515 5513 5509 5508 5505 5501 5496 5487 5479 5471 5463 5455 5445 5434 5422 5411 5397 5382 5368 5352 5337 5326
5470 5482 5494 5509 5520 5520 5520 5522 5523 5525 5530 5534 5531 5533 5529 5524 5524 5523 5523 5518 5513 5511 5509 5505 5500 5496 5491 5484 5478 5472 5465 5458 5450 5440 5430 5418 5406 5393 5379 5366 5350 5335 5323
5474 5487 5501 5505 5511 5515 5517 5513 5514 5520 5522 5524 5524 5528 5523 5525 5524 5520 5516 5514 5512 5509 5506 5501 5494 5490 5484 5479 5473 5465 5459 5453 5444 5436 5425 5415 5403 5392 5378 5364 5350 5335 5322
5484 5497 5500 5505 5510 5514 5513 5513 5511 5504 5510 5516 5519 5520 5523 5521 5517 5514 5512 5511 5508 5506 5504 5497 5492 5486 5481 5475 5469 5463 5455 5448 5442 5432 5423 5413 5403 5392 5379 5366 5352 5339 5326
5495 5501 5505 5511 5511 5511 5513 5511 5511 5511 5510 5505 5507 5513 5513 5512 5511 5511 5512 5509 5503 5500 5499 5495 5489 5484 5478 5472 5466 5460 5452 5445 5437 5429 5420 5412 5402 5392 5380 5367 5355 5343 5332
5501 5503 5506 5508 5510 5510 5509 5508 5510 5512 5510 5509 5508 5505 5503 5507 5508 5509 5508 5506 5503 5499 5496 5492 5488 5483 5477 5471 5464 5458 5451 5443 5435 5427 5418 5411 5402 5393 5381 5371 5361 5352 5339
5501 5503 5506 5507 5506 5506 5508 5509 5508 5508 5505 5504 5502 5503 5506 5507 5504 5503 5502 5502 5500 5498 5495 5492 5487 5482 5476 5470 5463 5456 5449 5441 5433 5426 5419 5412 5404 5395 5385 5375 5364 5353 5344
5501 5502 5505 5505 5505 5505 5507 5507 5507 5506 5504 5500 5498 5500 5503 5502 5502 5503 5501 5499 5499 5498 5494 5491 5487 5482 5475 5468 5462 5456 5448 5440 5433 5426 5420 5413 5406 5397 5389 5379 5370 5361 5352
5498 5500 5502 5502 5504 5505 5504 5504 5504 5503 5501 5500 5498 5499 5500 5499 5501 5501 5500 5499 5498 5497 5495 5492 5487 5482 5475 5469 5463 5456 5448 5441 5434 5428 5422 5416 5408 5401 5393 5384 5375 5367 5359
5496 5500 5500 5501 5502 5502 5501 5501 5501 5500 5500 5499 5498 5498 5497 5497 5499 5500 5499 5498 5497 5495 5493 5490 5487 5480 5474 5468 5463 5457 5451 5444 5438 5431 5424 5418 5411 5404 5397 5389 5381 5373 5366
5493 5496 5498 5500 5500 5500 5499 5498 5497 5497 5498 5499 5499 5497 5497 5498 5499 5499 5498 5497 5496 5494 5493 5490 5486 5481 5474 5468 5462 5457 5452 5446 5441 5435 5428 5421 5414 5407 5400 5393 5386 5379 5372
5492 5496 5500 5499 5500 5499 5497 5496 5495 5495 5498 5499 5499 5498 5497 5498 5499 5498 5497 5497 5496 5494 5492 5489 5485 5480 5475 5469 5464 5459 5454 5448 5444 5437 5431 5425 5417 5410 5404 5397 5391 5385 5378
5491 5494 5497 5497 5498 5498 5497 5496 5496 5497 5499 5499 5500 5499 5498 5498 5498 5498 5496 5497 5496 5494 5492 5488 5484 5480 5475 5470 5465 5460 5455 5451 5445 5440 5434 5428 5422 5415 5408 5401 5395 5389 5383